Reflectivity
-20 -20 -20 -20 -20 -20 -20 -20 -20 -20 -20 -20 -20 -20 -20 -20 -20 -20 -20 -20 -20 -20 -20 -20 -15 -20 -20 -20 5 -1 -4 -20 -20 -20 -20 -20 -20 -6 -20 -20 -20 -20 -20
-20 -20 -20 -20 -20 -20 -20 -20 -20 -20 -20 -20 -20 -20 -20 -20 -20 -20 -20 -20 -20 -20 -20 -20 -20 -20 -20 -20 -20 -7 -15 -20 -20 -20 -20 -20 -20 -20 12 -20 -20 -20 -20
-20 -20 -20 -20 -20 -20 -20 -20 -20 -20 -20 -20 -20 -20 -20 -20 -20 -20 -20 -20 -20 -20 -20 -20 -20 -20 -20 -20 -20 -20 -5 -20 -20 5 -10 27 32 -20 -20 -20 -20 -20 -20
-20 -20 -20 -20 -20 -20 -20 -20 -20 -20 -20 -20 -20 -20 -20 -20 -20 -20 -20 -20 -20 -20 -20 -20 -20 -20 -20 -20 -20 -20 -20 -20 -20 -20 -20 -20 -20 -20 -20 -20 -20 -20 -20
-20 -20 -20 -20 -20 -20 -20 -20 -20 -20 -20 -20 -20 -20 -20 -20 -20 -20 -20 -20 -20 -20 -11 -19 -20 -20 -20 -20 -20 -20 -20 -20 -20 -20 -20 -20 -20 -20 -20 -20 -20 -20 -20
-20 -20 -20 -20 -20 -20 -20 -20 -20 -20 -20 -20 -20 -20 -20 -20 -20 -20 -20 -20 -20 -20 -20 -20 -20 -20 -20 -20 -20 -20 -20 -20 -20 -20 -20 -20 -20 -20 -20 -20 -20 -20 -20
-20 -20 -20 -20 -20 -20 -20 -20 -20 -20 -20 -20 -20 -20 -20 -20 -20 -20 -20 -20 -20 -20 -20 -20 -20 -20 -20 -20 -20 -20 -20 -20 -20 -20 -20 -20 -20 -20 -20 -20 -20 -20 -20
-20 -20 -20 -20 -20 -20 -3 -20 -20 -20 -20 -20 -20 -20 -20 -20 -20 -20 -20 -20 -20 -20 -20 -20 -20 -20 -20 -20 -20 -20 -20 -20 -20 -20 -20 -20 -20 -20 -20 -20 -20 -20 -20
-20 -20 -20 -20 -20 -20 -20 -20 -20 -20 -20 -20 -20 -20 -20 -20 -20 -20 -20 -20 -20 -20 -20 -20 -20 -20 -20 -20 -20 -20 -20 -20 -20 -20 -20 -20 -20 -20 -20 -20 -20 -20 -20
-20 -20 -20 -20 -20 -20 -20 -20 -20 -20 -20 -20 -20 -20 -20 -20 -20 -20 -20 -20 -20 -20 -20 -20 -20 -20 -20 -20 -20 -20 -20 -20 -20 -20 -20 -20 -20 -20 -20 -20 -20 -20 -20
-20 -20 -20 -20 -20 -20 -20 -20 -20 -20 -20 -20 -20 -20 -20 -20 -20 -20 -20 -20 -20 -20 -20 -20 -20 -20 -20 -20 -20 -20 -20 -20 -20 -20 -20 -20 -20 -20 -20 -20 -20 -20 -20
-20 -20 -20 -20 -20 -20 -20 -20 -20 -20 -20 -20 -20 -20 -20 -20 -20 -20 -20 -20 -20 -20 -20 -20 -20 -20 -20 -20 -20 -2 -20 -20 -20 -20 -20 -20 -20 -20 -20 -20 -20 -20 -20
-20 -20 -20 -20 -20 -20 -20 -20 -20 -20 -20 -20 -20 -20 -20 -20 -20 -20 -20 -20 -20 -20 -20 -20 -20 -20 -20 -20 -20 -20 -20 -8 -20 -20 -20 -20 -20 -20 -20 -20 -20 -20 -20
-20 -20 -20 -20 -20 -20 -20 -20 -20 -20 -20 -20 -20 -20 -20 -20 -20 -20 -20 -20 -20 -20 -20 -20 -20 -20 -20 -20 -20 -20 -20 -20 -20 24 -20 -20 -15 -20 -20 -20 -20 -20 -20
-20 -13 -20 -20 -20 -20 -20 -3 -20 -20 -20 -20 -20 -20 -20 -20 -20 -20 -20 -20 -20 -20 -20 -20 -20 -20 -20 -20 -20 -20 -20 -20 -20 -20 -20 -20 -20 -5 -20 -20 -20 -20 -20
-20 -20 -20 -20 -20 -20 -20 -20 -20 -16 7 -20 -20 -20 -20 -20 -20 -20 -20 -20 -20 -20 -20 -20 -20 -20 -20 -20 -16 -20 -20 -20 13 -20 -20 -18 -20 -20 -20 -20 -20 -20 -20
-20 -20 -20 -20 -20 -20 -20 -20 -20 -20 -20 -20 -20 -20 -20 -20 -20 -20 -20 -20 -4 -20 -20 -20 -20 -20 -20 -4 -20 -20 -20 -4 -20 -20 -7 -20 -20 -20 -20 -20 -20 -20 -20
-20 -20 -20 -20 -20 -20 -20 -20 -20 -20 -20 -20 -20 -20 -20 -18 -20 -20 -20 -20 -20 -20 -20 -20 -20 -20 -20 -20 -20 -20 -20 16 -17 -7 -18 -16 -20 -20 -20 -20 -20 -20 -20
-20 -20 -20 -20 -20 -20 -20 -20 -20 -20 -20 -20 -20 -20 -20 -20 -20 -20 -20 -20 24 -0 -18 -20 -20 -20 -20 -20 -3 -20 -3 -20 -20 8 -20 -20 -20 -7 -15 -20 -20 -20 -20
-20 -20 -20 -20 -20 -20 -20 -20 -20 -20 -20 -20 -20 -20 -20 -20 -20 -20 -20 -20 -20 -10 -20 -20 -20 -20 -20 -10 -20 -20 22 23 21 -8 -18 -20 -17 -5 -20 -6 -20 -20 -20
-20 -20 -20 -20 -20 -20 -20 -20 -20 -20 -20 -20 -20 -20 -20 -20 -20 13 -15 -20 -17 22 -8 -20 -16 -20 -20 -20 -20 30 22 -20 30 -0 20 -20 -20 -20 -20 -18 -20 -20 -20
-20 -20 -19 -20 -20 -20 -20 -3 -20 -20 -20 -20 -20 -20 -20 -20 -20 14 2 -11 -20 -20 22 23 -20 -20 -20 -20 -7 3 26 28 -13 25 -14 -20 -20 -20 -17 -20 -20 -20 -20
-20 -20 -20 -20 -20 -20 -20 -16 -20 -20 -20 -20 -15 -20 -20 -20 -20 -20 -20 -20 -20 -20 -20 -9 -20 -20 -20 -7 -1 -20 -20 -20 2 24 -2 -20 -20 -19 4 -12 14 -20 -17
-20 -20 -20 -20 -20 -20 -20 -20 -0 -3 -20 -20 -12 -20 -3 4 -20 -20 -20 -20 -20 -20 -20 -20 -20 -20 -20 -20 9 -20 -1 24 -5 14 -8 -6 5 -16 -20 10 21 2 -20
-20 -20 -20 -20 -20 -20 -20 -20 -20 -20 -20 -20 -20 -20 -16 34 9 16 8 -20 -20 -20 -20 -20 -20 -20 -20 -12 -20 26 31 22 16 20 11 24 19 2 17 20 -7 15 -20
-20 -20 -20 -20 -20 -20 -20 -20 -20 -20 -20 -20 -20 -20 -1 -20 -20 -20 -20 -20 -20 -20 -20 -16 31 31 27 29 15 28 12 29 22 18 18 24 25 20 17 19 15 10 -8
Wind_Speed
2 2 2 1 2 3 3 4 3 3 4 6 7 6 5 5 6 2 3 10 12 15 16 15 14 13 13 11 10 9 10 9 7 8 7 4 5 5 6 7 7 6 6
3 3 2 1 1 2 3 3 3 2 3 5 6 5 3 1 1 3 3 3 9 11 13 13 14 13 13 11 10 9 7 6 6 2 3 2 4 5 5 5 4 4 5
3 3 2 2 2 1 4 4 4 2 4 4 3 4 3 1 2 4 4 4 3 10 12 13 13 12 11 10 8 6 4 4 3 2 2 2 2 4 5 5 4 3 4
3 3 2 1 1 2 2 2 2 3 3 3 3 3 3 3 4 5 3 3 3 4 7 13 12 12 11 9 6 4 3 2 2 0 2 1 2 2 3 3 4 4 5
4 3 1 2 2 1 1 1 1 2 2 2 2 2 3 3 3 4 3 4 4 4 3 8 12 9 11 8 5 3 2 1 2 2 2 2 3 4 3 1 2 2 4
2 2 1 2 1 1 1 1 1 2 2 1 3 3 2 3 3 2 4 2 2 4 5 6 4 5 7 8 6 3 3 3 3 4 2 3 3 3 3 2 1 1 2
4 4 2 2 1 2 2 0 1 1 2 3 2 2 2 2 5 3 2 3 3 3 5 4 5 3 2 6 6 4 4 5 4 4 3 3 4 2 3 4 3 2 0
5 5 4 2 2 2 2 0 1 0 0 3 2 1 3 4 3 2 3 2 3 2 3 3 4 3 2 2 4 4 3 2 4 4 4 3 3 4 3 3 4 4 3
5 5 5 3 2 1 2 2 0 1 1 1 3 2 1 1 3 2 4 3 5 4 4 5 2 2 2 2 4 4 4 3 3 2 5 4 2 3 3 4 4 4 5
6 6 5 4 3 2 2 2 2 1 1 0 1 2 1 1 0 3 2 4 3 4 5 4 2 2 3 1 2 2 1 5 3 2 5 5 4 2 3 4 5 5 5
5 5 5 4 3 2 2 3 2 3 2 2 1 1 0 1 1 1 2 4 3 2 4 5 3 1 3 3 2 0 1 1 2 4 5 5 5 4 4 5 5 5 5
3 4 5 5 4 3 4 3 3 3 3 2 2 2 2 2 2 1 1 2 3 4 3 4 4 2 2 1 1 1 1 2 1 3 4 6 6 5 5 6 5 6 5
3 6 5 5 4 5 5 4 4 4 3 2 3 3 2 3 2 2 2 1 1 2 3 1 2 2 2 2 2 3 6 5 4 4 3 5 7 8 7 7 7 8 8
4 3 4 4 5 5 4 4 4 4 4 4 5 4 3 4 4 2 2 2 1 2 2 4 1 1 3 3 3 2 3 7 6 4 6 7 8 8 9 9 10 9 10
4 5 5 5 5 5 5 4 4 6 4 4 5 5 5 4 4 4 3 3 2 2 2 2 2 2 2 2 2 3 4 5 7 7 7 9 9 9 9 10 10 10 10
4 5 5 6 5 4 3 4 5 6 5 5 5 5 5 5 5 4 4 4 4 3 3 3 2 2 1 2 3 5 5 7 6 8 8 10 9 9 10 10 10 10 11
6 6 6 5 6 5 6 5 7 7 8 7 6 6 7 5 4 4 3 3 4 4 4 2 3 1 3 3 3 5 5 6 6 9 8 10 10 10 10 10 10 10 10
6 6 5 5 5 6 6 7 8 7 9 9 9 7 9 6 7 6 5 6 5 5 4 6 2 3 4 3 4 5 5 4 6 8 11 10 11 11 11 10 10 11 11
5 5 6 7 7 7 7 8 8 9 8 10 9 9 10 8 8 6 6 6 5 4 5 4 4 2 2 3 3 4 4 6 4 10 10 11 11 11 11 11 11 11 10
9 9 10 7 6 6 6 6 7 8 9 9 10 9 11 10 11 9 8 8 7 5 5 5 5 4 3 2 4 4 3 2 5 6 7 8 10 12 12 11 12 12 11
10 10 7 5 4 6 5 6 6 7 8 9 9 10 11 12 14 12 7 8 8 7 5 6 5 3 3 3 6 4 3 5 4 3 5 6 6 6 7 9 11 13 12
5 4 6 3 5 6 8 9 9 7 7 9 10 9 9 12 14 16 16 15 11 9 9 6 6 7 8 6 5 6 6 4 4 5 4 5 4 4 4 4 11 13 12
4 4 6 6 6 7 9 10 11 7 8 11 12 10 9 9 13 12 14 16 15 15 15 10 10 10 8 9 7 8 8 8 5 7 8 5 3 5 4 5 11 12 10
5 5 6 8 9 8 9 8 9 8 7 10 12 13 12 12 12 12 10 11 12 12 14 11 11 10 10 7 11 11 10 6 6 6 5 4 3 3 4 5 9 10 9
4 4 5 8 9 12 16 18 15 9 9 12 11 11 12 12 12 15 10 11 12 11 7 10 9 6 8 9 10 7 7 9 3 4 4 3 4 4 3 3 4 9 8
3 4 5 5 8 10 13 16 14 9 12 10 11 14 15 16 13 14 12 12 12 12 9 8 6 3 2 4 7 6 8 10 5 3 2 3 7 5 3 1 3 4 4
Wind_Direction
210 200 225 213 268 299 289 298 300 287 278 273 272 255 253 246 244 224 247 237 207 207 222 235 246 247 249 257 267 273 273 278 279 271 271 267 247 220 211 206 209 216 223
195 203 210 220 256 272 295 289 296 331 307 285 280 286 285 227 201 198 213 234 243 227 229 237 247 257 260 263 263 258 260 270 269 248 305 267 224 211 209 199 193 212 228
230 195 202 220 244 301 323 315 305 358 337 323 310 319 318 289 218 215 210 216 241 249 249 252 262 267 274 270 268 275 286 275 296 85 305 289 247 205 187 181 181 199 230
196 195 165 211 282 1 345 319 327 332 25 336 325 319 347 2 344 294 258 236 220 252 278 269 260 269 285 249 252 274 292 302 302 336 308 74 103 119 162 179 194 189 202
141 159 174 229 102 11 357 351 333 1 359 303 285 348 7 354 335 310 279 243 242 230 261 286 278 273 266 221 197 223 277 276 279 279 295 135 125 118 121 289 280 238 217
155 173 170 183 171 138 59 -0 32 338 314 317 308 319 323 322 317 326 315 317 248 264 265 266 272 249 245 169 157 154 175 204 239 269 265 141 130 121 114 92 65 269 232
172 217 214 212 163 173 141 341 347 13 304 27 351 328 332 316 305 333 333 297 287 262 279 258 223 225 188 125 155 140 175 189 194 237 220 185 143 117 96 85 77 72 115
181 200 215 212 225 137 134 351 40 189 302 35 67 354 357 334 325 347 334 324 309 295 292 244 250 233 231 134 151 140 139 187 185 211 172 197 156 129 105 83 72 60 42
186 202 216 220 195 148 152 168 186 25 34 348 59 128 17 293 315 330 353 328 320 322 319 289 265 220 172 155 136 115 136 163 209 210 159 160 158 128 109 87 65 51 38
192 190 206 222 222 206 221 176 172 172 144 347 334 46 46 165 102 334 341 315 321 342 345 344 244 200 147 126 118 129 155 155 190 167 160 149 142 131 102 83 74 69 63
229 199 193 209 223 203 231 244 203 196 184 176 204 278 69 44 49 131 296 326 325 332 13 7 353 298 104 138 115 50 346 283 186 130 128 133 125 118 106 91 85 78 62
237 214 198 203 220 218 216 230 253 224 232 231 200 224 228 206 216 173 204 282 292 313 333 12 23 51 106 119 98 22 281 196 184 106 107 107 103 106 105 102 97 81 61
203 221 198 204 203 218 222 213 236 240 221 225 233 241 227 231 206 180 172 242 294 312 318 23 2 102 143 136 110 94 138 152 134 117 110 95 94 94 96 92 86 80 74
220 190 205 212 223 221 228 207 220 234 228 231 240 241 260 241 226 209 208 171 296 289 298 266 236 184 147 178 191 103 142 129 129 131 126 111 102 95 94 93 90 85 80
218 230 212 220 228 228 227 219 226 237 221 230 233 235 244 255 241 229 217 207 185 250 276 297 285 193 221 221 184 154 153 135 133 135 120 109 100 105 104 101 95 91 87
225 220 208 229 237 233 241 235 242 245 225 235 239 230 238 250 250 243 232 215 207 201 244 225 256 237 213 163 142 153 142 124 132 123 121 116 115 108 101 99 98 95 92
203 217 224 209 219 224 232 231 235 239 227 236 237 231 244 231 238 240 233 224 209 188 226 275 255 274 192 183 132 129 130 135 131 130 124 119 119 108 102 104 104 101 95
202 212 220 220 228 233 241 235 242 238 226 230 229 230 248 246 239 228 222 234 226 208 205 239 251 242 208 200 162 141 141 123 125 126 126 125 116 110 110 107 103 95 87
202 201 204 217 218 225 230 229 230 239 232 235 232 219 234 230 243 237 223 238 238 229 223 232 242 244 188 163 131 101 111 113 105 114 109 110 113 116 113 107 97 88 86
188 200 210 206 212 216 226 234 225 228 231 233 231 228 236 223 230 228 229 227 230 237 217 232 246 246 225 165 157 147 162 138 141 144 121 118 119 114 111 109 109 107 102
206 215 211 207 209 248 246 234 231 231 241 247 241 231 232 231 228 225 219 231 220 225 218 225 234 217 204 187 202 169 149 152 146 147 134 131 130 120 122 124 114 114 112
238 284 283 235 211 232 232 239 251 262 262 258 252 245 238 231 227 225 221 226 207 220 223 218 227 223 221 208 178 179 147 171 189 180 138 134 125 105 115 128 134 132 127
33 339 326 319 288 260 229 240 239 241 253 254 255 250 251 247 234 235 223 229 230 220 221 215 224 219 227 210 183 176 181 188 186 155 144 138 151 123 133 130 139 136 129
22 354 338 345 327 307 323 318 303 276 250 254 249 247 240 248 239 218 224 233 233 226 224 221 226 232 224 192 196 195 186 152 95 155 160 131 155 104 121 123 147 137 133
20 3 339 335 327 311 320 317 316 298 279 267 259 253 249 249 235 213 218 235 242 240 211 220 235 241 225 210 171 139 167 166 140 175 195 116 146 107 100 139 152 140 141
20 6 349 310 301 298 300 293 297 293 282 273 264 253 230 234 232 210 217 229 240 243 208 208 231 239 171 154 166 212 176 176 136 120 179 116 137 139 123 80 155 142 152